Probability
0 0 0 0 0 0 0 0 0 0 0 0 0 0 0 0 0 0 3 10 10 16 6 6 16 19 32 39 35 71 74 65 55 39 23 16 10 10 6 3 0 0 0 0
0 0 0 0 0 0 0 0 0 0 0 0 0 0 0 0 0 0 0 3 6 0 3 3 6 13 19 32 42 48 65 65 52 39 23 16 10 10 6 6 6 0 0 0
0 0 0 0 0 0 0 0 0 0 0 0 0 0 0 0 0 0 0 0 3 0 0 3 6 6 13 10 29 32 55 48 52 45 35 23 10 10 6 6 3 3 0 0
0 0 0 0 0 0 0 0 0 0 0 0 0 0 0 0 0 0 0 0 0 0 0 0 0 6 10 10 16 26 29 39 48 48 35 23 13 10 6 3 6 6 6 3
0 0 0 0 0 0 0 0 0 0 0 0 0 0 0 0 0 0 0 0 0 0 0 0 0 0 3 3 3 13 23 35 39 39 35 32 23 10 6 6 6 10 3 3
0 0 0 0 0 0 0 0 0 0 0 0 0 0 0 0 0 0 0 0 0 0 0 0 0 0 3 3 3 3 13 10 26 35 39 32 23 16 10 6 3 6 3 3
0 0 0 0 0 0 0 0 0 0 0 0 0 0 0 0 0 0 0 0 0 0 0 0 0 0 3 3 3 3 3 6 10 16 19 26 23 16 16 6 3 3 3 3
0 0 0 0 0 0 0 0 0 0 0 0 0 0 0 0 0 0 0 0 0 0 0 0 0 0 0 0 0 0 3 0 3 3 10 10 13 16 3 0 0 0 0 3
0 0 0 0 0 0 0 0 0 0 0 0 0 0 0 0 0 0 0 0 0 0 0 0 0 0 0 0 0 0 0 0 0 0 3 6 3 3 0 0 0 0 0 0
0 0 0 0 0 0 0 0 0 0 0 0 0 0 0 0 0 0 0 0 0 0 0 0 0 0 0 0 0 0 0 0 0 0 0 0 0 0 0 0 0 0 0 0
0 0 0 0 0 0 0 0 0 0 0 0 0 0 0 0 0 0 0 0 0 0 0 0 0 0 0 0 0 0 0 0 0 0 0 0 0 0 0 0 0 0 0 0
0 0 0 0 0 0 0 0 0 0 0 0 0 0 0 0 0 0 0 0 0 0 0 0 0 0 0 0 0 0 0 0 0 0 0 0 0 0 0 0 0 0 0 0
0 0 0 0 0 0 0 0 0 0 0 0 0 0 0 0 0 0 0 0 0 0 0 0 0 0 0 0 0 0 0 0 0 0 0 0 0 0 0 0 0 0 0 0
0 0 0 0 0 0 0 0 0 0 0 0 0 0 0 0 0 0 0 0 0 0 0 0 0 0 0 0 0 0 0 0 0 0 0 0 0 0 0 0 0 0 0 0
0 0 0 0 0 0 0 0 0 0 0 0 0 0 0 0 0 0 0 0 0 0 0 0 0 0 0 0 0 0 0 0 0 0 0 0 0 0 0 0 0 0 0 0
0 0 0 0 0 0 0 0 0 0 0 0 0 0 0 0 0 0 0 0 0 0 0 0 0 0 0 0 0 0 0 0 0 0 0 0 0 0 0 0 0 0 0 0
0 0 0 0 0 0 0 0 0 0 0 0 0 0 0 0 0 0 0 0 0 0 0 0 0 0 0 0 0 0 0 0 0 0 0 0 0 0 0 0 0 0 0 0
0 0 0 0 0 0 0 0 0 0 0 0 0 0 0 0 0 0 0 0 0 0 0 0 0 0 0 0 0 0 0 0 0 0 0 0 0 0 0 0 0 0 0 0
0 0 0 0 0 0 0 0 0 0 0 0 0 0 0 0 0 0 0 0 0 0 0 0 0 0 0 0 0 0 0 0 0 0 0 0 0 0 0 0 0 0 0 0
0 0 0 0 0 0 0 0 0 0 0 0 0 0 0 0 0 0 0 0 0 0 0 0 0 0 0 0 0 0 0 0 0 0 0 0 0 0 0 0 0 0 0 0
0 0 0 0 0 0 0 0 0 0 0 0 0 0 0 0 0 0 0 0 0 0 0 0 0 0 0 0 0 0 0 0 0 0 0 0 0 0 0 0 0 0 0 0
0 0 0 0 0 0 0 0 0 0 0 0 0 0 0 0 0 0 0 0 0 0 0 0 0 0 0 0 0 0 0 0 0 0 0 0 0 0 0 0 0 0 0 0
0 0 0 0 0 0 0 0 0 0 0 0 0 0 0 0 0 0 0 0 0 0 0 0 0 0 0 0 0 0 0 0 0 0 0 0 0 0 0 0 0 0 0 0
0 0 0 0 0 0 0 0 0 0 0 0 0 0 0 0 0 0 0 0 0 0 0 0 0 0 0 0 0 0 0 0 0 0 0 0 0 0 0 0 0 0 0 0
0 0 0 0 0 0 0 0 0 0 0 0 0 0 0 0 0 0 0 0 0 0 0 0 0 0 0 0 0 0 0 0 0 0 0 0 0 0 0 0 0 0 0 0
0 0 0 0 0 0 0 0 0 0 0 0 0 0 0 0 0 0 0 0 0 0 0 0 0 0 0 0 0 0 0 0 0 0 0 0 0 0 0 0 0 0 0 0
Height
5608 5613 5618 5623 5629 5635 5641 5647 5653 5660 5666 5672 5679 5686 5692 5698 5706 5713 5721 5729 5736 5744 5751 5757 5763 5770 5777 5782 5788 5793 5797 5802 5805 5809 5812 5815 5818 5821 5823 5825 5827 5829 5831 5833
5609 5613 5617 5622 5627 5633 5638 5644 5650 5656 5662 5668 5674 5680 5685 5692 5700 5708 5715 5723 5730 5737 5744 5750 5756 5763 5769 5775 5781 5785 5790 5794 5798 5802 5805 5809 5811 5813 5816 5818 5820 5822 5823 5825
5609 5613 5616 5621 5626 5631 5636 5642 5648 5653 5658 5663 5668 5674 5680 5687 5694 5701 5708 5716 5723 5730 5737 5743 5749 5756 5762 5768 5773 5778 5783 5787 5790 5794 5798 5801 5803 5805 5808 5810 5812 5814 5815 5817
5609 5612 5616 5620 5624 5629 5634 5639 5644 5649 5655 5659 5664 5669 5676 5682 5688 5695 5703 5710 5717 5723 5729 5735 5741 5748 5754 5760 5765 5770 5774 5778 5782 5786 5789 5792 5795 5797 5800 5802 5804 5805 5806 5808
5610 5612 5615 5619 5623 5627 5632 5636 5641 5646 5650 5655 5660 5664 5672 5676 5682 5690 5697 5704 5710 5716 5722 5728 5734 5740 5746 5751 5756 5761 5765 5769 5773 5777 5780 5784 5787 5789 5791 5793 5795 5797 5798 5799
5610 5613 5615 5618 5621 5625 5629 5634 5639 5643 5646 5652 5657 5660 5666 5671 5678 5685 5691 5697 5702 5707 5713 5719 5725 5731 5736 5742 5747 5752 5756 5761 5764 5768 5771 5774 5777 5779 5781 5784 5785 5787 5788 5790
5612 5613 5615 5617 5620 5624 5628 5633 5637 5639 5643 5648 5652 5655 5662 5668 5673 5678 5684 5690 5694 5700 5706 5711 5717 5722 5728 5733 5738 5742 5747 5751 5755 5758 5761 5764 5767 5769 5771 5773 5775 5777 5778 5779
5613 5615 5616 5617 5620 5623 5627 5631 5636 5638 5641 5645 5647 5650 5657 5662 5666 5671 5677 5682 5687 5692 5698 5703 5708 5714 5719 5724 5728 5733 5737 5741 5745 5748 5751 5754 5756 5759 5761 5763 5765 5766 5767 5768
5615 5616 5616 5617 5619 5622 5626 5629 5633 5636 5638 5641 5644 5648 5652 5656 5660 5665 5669 5674 5679 5684 5690 5694 5700 5705 5710 5715 5719 5723 5727 5731 5734 5738 5741 5743 5746 5748 5750 5752 5753 5755 5756 5757
5617 5618 5618 5619 5620 5623 5626 5628 5631 5633 5635 5638 5641 5644 5647 5650 5654 5658 5662 5667 5672 5676 5682 5686 5691 5696 5700 5705 5709 5713 5717 5721 5724 5727 5730 5733 5735 5737 5739 5741 5742 5743 5744 5745
5618 5619 5620 5620 5621 5623 5626 5628 5629 5631 5633 5635 5637 5642 5642 5645 5648 5652 5656 5660 5664 5668 5673 5678 5682 5687 5691 5695 5699 5703 5707 5710 5714 5717 5719 5722 5724 5726 5728 5729 5731 5732 5733 5733
5620 5621 5621 5622 5622 5623 5625 5626 5628 5629 5630 5631 5632 5638 5639 5641 5643 5646 5649 5653 5656 5661 5665 5669 5674 5678 5682 5686 5690 5693 5697 5700 5703 5706 5709 5711 5713 5715 5717 5719 5720 5721 5721 5722
5622 5623 5623 5623 5626 5625 5625 5625 5626 5627 5627 5627 5628 5633 5633 5635 5637 5639 5643 5646 5650 5653 5657 5662 5666 5670 5674 5677 5681 5684 5688 5691 5694 5696 5698 5700 5703 5704 5706 5707 5709 5710 5710 5711
5623 5624 5624 5625 5624 5624 5624 5624 5625 5624 5624 5624 5624 5626 5628 5629 5631 5633 5636 5639 5642 5646 5650 5654 5658 5661 5665 5668 5672 5675 5678 5681 5684 5686 5688 5690 5692 5694 5696 5697 5698 5699 5699 5699
5624 5624 5624 5624 5623 5623 5622 5623 5622 5622 5621 5620 5621 5621 5623 5624 5625 5627 5630 5633 5636 5640 5643 5647 5650 5654 5657 5660 5663 5666 5669 5672 5674 5677 5679 5681 5682 5684 5685 5686 5687 5687 5688 5688
5624 5624 5623 5623 5622 5621 5621 5621 5619 5618 5618 5617 5617 5617 5618 5618 5619 5621 5624 5627 5630 5633 5637 5640 5643 5646 5649 5652 5655 5658 5660 5663 5665 5667 5669 5671 5672 5673 5674 5675 5676 5676 5676 5676
5623 5622 5622 5621 5620 5620 5619 5618 5616 5615 5614 5614 5613 5614 5613 5613 5614 5616 5618 5621 5624 5627 5630 5633 5635 5638 5641 5644 5646 5649 5651 5653 5655 5657 5659 5660 5662 5663 5664 5664 5665 5665 5665 5665
5622 5620 5619 5618 5618 5617 5619 5615 5613 5611 5611 5610 5609 5609 5609 5609 5609 5611 5613 5615 5618 5620 5623 5625 5628 5631 5633 5635 5638 5640 5642 5644 5646 5648 5649 5650 5652 5653 5653 5654 5654 5654 5654 5654
5619 5618 5617 5615 5614 5613 5614 5611 5609 5607 5607 5606 5605 5605 5605 5605 5606 5607 5608 5610 5612 5614 5616 5618 5620 5623 5625 5627 5629 5631 5633 5635 5637 5638 5640 5641 5642 5643 5643 5644 5644 5644 5644 5643
5617 5615 5614 5612 5610 5609 5610 5607 5604 5604 5602 5601 5600 5600 5600 5601 5602 5603 5603 5604 5605 5607 5609 5611 5613 5615 5617 5619 5620 5622 5624 5626 5627 5629 5630 5631 5632 5632 5633 5633 5633 5633 5633 5633
5613 5611 5610 5607 5605 5605 5603 5601 5600 5600 5599 5596 5595 5595 5595 5596 5596 5597 5597 5598 5600 5601 5602 5604 5605 5607 5609 5610 5612 5614 5615 5617 5618 5619 5620 5621 5622 5622 5623 5623 5623 5623 5623 5622
5609 5607 5605 5603 5601 5602 5598 5596 5595 5593 5591 5591 5590 5590 5590 5590 5590 5591 5591 5592 5593 5594 5595 5597 5598 5599 5601 5602 5604 5605 5606 5608 5609 5610 5611 5611 5612 5613 5613 5613 5613 5613 5613 5613
5605 5603 5600 5599 5599 5595 5592 5590 5588 5587 5586 5585 5584 5584 5584 5584 5584 5584 5585 5586 5586 5587 5588 5589 5591 5592 5593 5594 5595 5597 5598 5599 5600 5601 5601 5602 5603 5603 5603 5604 5604 5604 5603 5603
5600 5597 5595 5593 5592 5589 5587 5584 5583 5581 5580 5579 5578 5577 5577 5577 5577 5577 5578 5578 5579 5580 5581 5582 5583 5585 5586 5587 5588 5588 5589 5590 5591 5592 5593 5593 5594 5594 5594 5594 5594 5594 5594 5594
5595 5592 5590 5588 5586 5584 5581 5578 5577 5575 5574 5572 5571 5571 5570 5570 5570 5570 5571 5571 5572 5573 5574 5575 5576 5577 5578 5579 5580 5581 5581 5582 5583 5583 5584 5585 5585 5585 5585 5585 5585 5585 5585 5585
5589 5587 5584 5582 5579 5576 5574 5572 5570 5568 5567 5566 5565 5564 5563 5562 5562 5562 5563 5564 5565 5566 5567 5568 5568 5569 5570 5571 5572 5573 5573 5574 5575 5575 5575 5576 5576 5576 5577 5577 5577 5576 5576 5576
Wind_Speed
15 20 23 26 28 30 31 32 35 39 42 44 46 49 50 51 53 53 54 54 54 53 53 52 53 53 52 50 49 48 47 45 44 43 42 41 40 39 39 38 37 37 37 37
13 17 20 23 26 29 28 30 32 35 38 41 44 46 49 50 51 52 53 54 53 53 53 53 52 52 52 51 50 49 48 46 45 45 45 44 43 41 41 40 40 40 40 39
10 15 18 20 23 26 27 27 30 32 34 37 41 45 48 48 50 51 52 52 53 53 52 52 53 52 52 51 50 49 48 48 47 46 45 45 45 44 43 42 42 41 42 42
9 12 16 18 21 24 25 26 27 30 33 34 38 41 44 46 47 49 50 51 51 52 52 53 53 53 53 52 51 50 49 49 48 47 46 46 46 45 44 44 44 44 44 44
7 11 15 18 20 22 22 25 26 28 31 32 34 38 40 43 46 47 48 50 51 52 52 52 52 53 53 53 53 51 51 50 49 48 47 47 46 46 46 46 46 46 46 46
6 9 12 15 19 20 20 23 24 26 29 31 32 35 36 39 42 44 46 48 49 51 51 51 52 52 51 52 52 53 52 51 50 50 49 49 48 48 48 48 48 48 48 48
4 6 9 12 16 19 19 21 22 24 27 28 29 32 33 34 38 41 43 46 47 49 51 51 51 51 51 51 52 52 53 53 52 52 51 51 51 51 50 50 51 50 50 51
2 5 7 10 14 17 18 19 20 22 24 25 26 29 30 31 35 38 40 43 45 47 48 48 49 49 49 50 51 52 53 53 53 53 52 52 53 53 53 53 53 53 53 53
2 2 5 8 12 15 16 17 18 19 20 22 24 26 28 30 32 34 37 39 42 44 45 46 46 47 48 48 49 50 51 52 53 53 54 53 54 53 52 53 54 54 54 54
3 1 2 6 9 12 14 16 17 17 18 19 21 22 24 27 29 30 33 36 39 41 42 43 44 44 45 46 47 49 50 51 51 51 52 53 53 52 52 52 52 53 53 52
4 2 1 4 7 9 11 13 15 16 17 18 19 21 23 25 27 28 30 32 35 38 39 41 42 42 43 44 45 46 47 48 50 50 51 52 53 53 52 51 52 52 52 51
4 2 2 3 5 7 9 10 12 14 16 16 18 19 20 23 26 27 28 30 32 34 36 37 39 40 41 41 42 43 44 45 46 47 48 49 49 50 50 50 50 49 50 50
4 3 2 1 3 6 7 9 10 12 14 16 18 18 19 21 24 25 26 28 30 33 34 35 36 36 37 39 40 41 41 42 42 43 44 45 46 46 47 47 48 48 48 48
5 3 3 3 4 6 7 8 9 11 13 15 17 17 19 21 23 24 26 27 28 30 31 32 33 34 35 36 37 38 39 40 41 41 42 43 44 44 45 46 46 46 47 47
5 4 4 4 5 7 7 8 10 12 14 15 16 18 19 21 23 24 26 27 27 28 29 30 31 32 33 34 35 36 37 37 38 39 40 41 42 43 43 44 45 45 45 45
7 6 7 6 7 8 8 10 12 12 14 15 16 17 17 20 22 23 24 26 27 29 29 30 31 31 33 34 34 35 36 37 37 38 38 39 40 41 42 43 43 43 43 43
8 9 10 9 10 11 11 11 12 13 13 15 15 16 17 19 21 22 23 24 26 28 29 30 31 31 32 33 34 35 35 36 36 37 37 37 38 39 40 40 41 42 42 42
10 11 12 12 12 12 12 12 13 14 14 15 15 16 17 18 19 21 22 23 25 26 28 29 30 31 32 32 33 34 34 35 35 36 36 37 37 38 38 39 39 40 41 41
12 13 14 14 14 14 13 14 15 15 15 16 16 17 16 17 18 19 20 22 23 25 27 28 29 30 31 32 33 33 34 34 35 36 36 36 37 37 38 38 39 40 40 41
14 15 16 17 17 17 15 16 16 17 16 16 17 17 17 18 19 19 20 22 23 24 26 27 28 29 30 30 31 32 33 34 34 35 35 36 36 37 37 38 38 38 39 39
16 17 17 18 19 19 19 19 18 18 18 18 18 18 18 19 20 21 22 23 24 24 25 26 27 28 29 30 31 31 32 33 33 34 34 35 35 36 36 36 36 36 36 37
17 18 18 20 20 20 20 20 20 20 20 19 19 19 20 20 20 21 22 23 24 25 25 26 26 27 28 29 29 30 31 31 32 33 33 34 34 34 34 35 35 35 35 35
18 19 20 20 21 21 21 21 22 22 22 22 21 21 21 22 22 22 22 23 24 24 24 24 25 26 26 27 28 29 29 30 30 31 31 32 32 33 33 33 34 33 33 33
19 20 20 21 22 22 22 22 22 22 23 23 23 23 23 23 24 24 23 23 24 24 25 25 25 25 25 26 26 27 28 28 29 29 29 30 30 31 31 31 31 31 31 31
21 21 22 23 23 23 23 23 23 22 23 23 23 23 23 24 24 24 25 25 25 24 25 25 26 26 26 26 26 27 27 27 28 28 28 29 30 30 30 30 30 30 30 30
22 24 24 24 25 25 24 24 24 24 23 23 24 24 24 24 24 25 25 25 25 25 25 26 26 26 27 27 27 27 27 27 28 28 29 29 29 30 30 30 29 29 29 29
Wind_Direction
202 202 202 203 206 207 210 212 215 217 219 222 221 221 221 221 220 220 221 222 223 223 223 223 224 226 227 228 230 232 234 236 239 242 244 246 248 251 253 255 257 259 261 263
203 205 204 204 206 206 209 212 214 217 219 222 223 223 223 222 222 223 222 222 223 224 225 225 225 226 228 230 232 233 236 238 240 243 245 248 250 252 254 256 258 260 262 265
203 204 204 204 207 208 210 213 215 217 218 220 223 225 224 224 224 224 224 223 224 225 227 228 228 228 229 231 233 235 237 239 241 244 246 248 250 251 254 256 259 261 263 265
202 198 203 206 207 208 212 215 216 220 221 223 225 227 225 225 225 225 225 225 226 227 228 230 230 231 232 233 235 236 238 240 242 244 246 249 250 252 254 257 259 261 263 265
193 196 202 205 205 211 214 215 218 221 224 227 228 231 228 228 227 227 227 227 228 229 229 231 232 234 233 234 235 237 239 241 243 244 246 248 250 252 255 257 259 261 263 265
175 188 202 206 204 208 213 215 218 221 225 229 230 234 232 230 230 229 228 228 229 230 231 232 233 235 235 236 236 238 239 241 244 245 247 249 251 253 255 257 259 260 262 264
163 184 194 202 203 206 210 214 218 220 225 232 233 237 235 232 232 231 230 229 231 232 233 234 234 236 237 238 238 240 240 242 244 246 248 250 251 253 255 257 259 262 263 265
153 195 202 203 203 205 206 210 216 224 229 233 235 240 237 234 234 232 232 231 232 233 234 236 236 237 238 239 240 242 242 244 245 246 249 251 253 255 256 258 261 263 264 266
67 168 204 211 202 200 204 209 216 226 233 237 240 242 240 237 235 234 233 232 233 234 235 236 238 239 240 241 242 243 245 246 247 249 250 252 254 255 257 259 261 263 265 265
27 93 195 202 198 199 205 209 215 224 234 241 242 242 243 238 237 237 235 235 234 235 235 237 239 240 241 241 243 244 245 246 248 250 251 252 254 256 258 260 262 264 264 265
39 72 113 186 193 203 207 214 220 230 237 243 247 245 243 242 241 240 238 237 236 236 237 238 239 240 241 242 243 244 246 247 249 251 253 254 255 257 259 260 262 264 265 266
38 57 71 169 199 206 209 220 230 235 239 245 251 249 245 246 244 242 239 237 237 236 237 238 239 240 241 242 243 244 246 249 250 251 253 255 256 258 260 261 263 266 267 268
24 19 4 226 237 234 231 236 239 245 248 251 256 255 247 245 244 242 240 238 237 236 237 238 239 240 242 243 243 244 246 248 250 252 253 254 256 258 260 262 263 266 268 269
8 355 336 313 294 273 263 255 252 256 260 259 260 257 249 245 242 241 238 236 236 236 237 238 239 240 241 243 244 245 246 248 250 252 253 255 256 258 260 262 264 266 267 268
346 333 325 307 291 286 282 274 269 266 262 260 259 258 253 248 243 240 238 236 237 237 237 238 240 240 242 243 245 245 246 248 250 252 254 256 258 259 261 262 264 266 267 269
329 318 309 305 299 295 294 290 277 272 268 262 259 259 257 252 247 244 240 238 238 239 239 239 241 243 244 245 246 247 248 250 251 253 255 257 258 260 262 264 265 267 268 269
322 314 308 303 296 296 297 295 281 274 272 269 267 264 258 253 248 244 241 240 239 239 239 241 242 244 246 246 248 249 250 251 253 255 256 258 260 261 263 265 266 268 269 271
312 309 305 304 299 297 301 295 288 281 277 273 269 267 262 255 248 244 242 242 241 241 241 242 243 244 246 247 248 250 251 252 254 256 258 260 262 263 265 266 268 269 270 271
308 307 303 303 302 301 299 294 291 288 280 273 269 266 263 259 253 248 245 244 242 243 243 243 243 245 246 247 248 250 252 253 255 257 258 260 262 264 266 267 269 270 271 271
305 305 302 298 299 300 300 295 291 288 282 275 270 265 260 259 258 254 250 248 247 245 245 245 245 245 247 249 249 251 253 255 256 257 259 261 262 264 265 267 269 270 271 271
302 303 302 300 298 300 299 296 292 286 284 278 272 267 261 257 257 257 254 251 251 250 249 249 248 249 250 251 252 254 255 256 256 258 259 261 263 264 265 267 269 270 271 271
304 301 299 300 300 299 295 293 289 285 281 276 272 268 263 261 258 257 254 252 252 252 252 251 251 251 252 253 254 255 256 257 257 259 260 262 263 265 266 268 269 270 271 271
304 302 299 300 300 299 295 289 286 284 280 275 272 268 265 263 261 259 256 255 254 254 253 253 252 253 254 255 256 256 257 257 258 259 261 262 264 265 267 269 269 270 270 270
303 299 300 300 300 299 295 291 287 283 280 276 271 268 265 265 264 261 258 256 255 256 255 255 255 255 256 257 258 258 259 259 260 260 262 263 264 266 267 267 269 269 270 270
305 301 301 301 300 297 294 290 287 283 280 276 272 269 267 267 265 261 257 256 255 256 257 257 255 255 256 258 259 260 261 261 262 263 264 266 266 267 267 267 269 270 270 270
306 304 303 302 301 298 295 289 286 283 280 276 273 271 269 268 266 261 258 257 256 256 257 258 258 257 257 258 259 260 261 261 262 263 264 266 266 266 267 267 269 270 270 270